Volver al catálogo

CZ-4B R/B

ActivoSSO
NORAD 33410·ROCKET BODY·🇨🇳 China

Lanzado Oct 25, 2008 desde Taiyuan Satellite Launch Center

Loading…

Próximos Pases (próximas 24 horas)

TLE

ActualizadoSource: Space-Track

Época: Sep 14, 2026, 11:00 UTC

1 33410U 08053C   26257.45893888  .00003907  00000-0  15480-3 0  9992
2 33410  97.7706 328.5018 0082037 306.3894  52.9793 15.22977877978216

Sigue CZ-4B R/B en tiempo real con AllMySat

Download on the App Store